[[{"header":{"parameterUnit":"m.s-1","parameterCategory":1,"la1":30.2991,"la2":30.254,"lo1":-89.0895,"lo2":-89.0444,"dy":0.0017,"dx":0.0017,"nx":28,"ny":28,"refTime":"2024-06-28T09:00:00:Z","depth":0,"parameterNumber":2,"parameterNumberName":"U-component_of_WINDS"},"data":[0,0,0,0,0,0,0,0,0,0,0,0,0,0,0,0,0,0,0,0,0,0,0,0,0,0,0,0,0,0,0,0,0,0,0,0,0,0,0,0,0,0,0,0,0,0,0,0,0,0,0,0,0,0,0,0,0,0,4.8398,4.8399,0,4.8568,4.857,4.8571,4.8534,4.8531,4.8527,4.8524,4.87,4.8707,4.8715,0,0,0,0,0,0,0,0,0,0,0,0,0,4.804,4.8047,4.8397,4.8399,4.8402,4.8567,4.857,4.8572,4.8534,4.8531,4.8527,4.8523,4.8697,4.8707,4.8716,0,0,0,0,0,0,0,0,0,0,0,0,0,4.8202,4.8049,4.8397,4.8403,4.8405,4.8567,4.857,4.8573,4.8535,4.853,4.8526,4.8521,4.8694,4.8706,4.8717,4.8884,0,0,4.8752,4.8757,0,0,0,0,0,0,0,0,4.8192,4.8215,4.84,4.8403,4.8406,4.8525,4.8508,4.8677,4.8536,4.8486,4.8524,4.8519,4.8646,4.8661,4.8703,4.8892,4.89,4.8753,4.876,4.8765,4.8768,0,0,0,0,0,0,0,4.8181,4.8207,4.8465,4.8403,4.8406,4.8397,4.8415,4.854,4.8591,4.849,4.8488,4.8508,4.8646,4.8692,4.8707,4.8902,4.8753,4.8763,4.877,4.8775,4.9234,4.9239,0,0,0,0,0,0,4.8168,4.8198,4.8459,4.847,4.8285,4.8407,4.8427,4.8491,4.8589,4.8599,4.8512,4.8506,4.8675,4.8694,4.8713,4.8913,4.8765,4.8776,4.8782,4.9229,4.9235,4.9241,0,0,0,0,0,0,4.816,4.8191,4.8452,4.8333,4.8366,4.8419,4.8491,4.8497,4.8543,4.8606,4.8615,4.855,4.8672,4.8697,4.8841,4.8918,4.8781,4.8791,4.9223,4.9231,4.9238,4.9315,0,0,0,0,0,0,4.815,4.8189,4.8253,4.8335,4.8372,4.8578,4.8496,4.8504,4.8563,4.8556,4.8644,4.8653,4.867,4.8824,4.8852,4.8932,4.88,4.9216,4.9226,4.9236,4.9305,4.9324,4.934,0,0,0,0,0,4.8137,4.8268,4.8256,4.8288,4.8453,4.8582,4.8603,4.862,4.8569,4.8634,4.8674,4.8651,4.8906,4.8839,4.8871,4.8955,4.9211,4.9223,4.9235,4.9298,4.9321,4.934,0,0,0,0,0,0,4.8194,4.8279,4.8267,4.8428,4.8498,4.8575,4.8657,4.8644,4.873,4.872,4.8737,4.8757,4.8903,4.8944,4.8868,4.912,4.9051,4.907,4.9088,4.911,4.9128,4.9114,4.881,0,0,0,0,0,4.8225,4.8323,4.8392,4.8528,4.8563,4.8604,4.8661,4.8667,4.8741,4.877,4.8821,4.8894,4.899,4.9053,4.9145,4.9312,4.9329,4.9385,4.9403,4.9417,4.9432,4.9521,4.9546,4.928,4.928,4.928,0,0,4.8291,4.8349,4.841,4.854,4.8595,4.8695,4.863,4.8739,4.8813,4.8787,4.8925,4.8965,4.9047,4.9203,4.9274,4.9241,4.951,4.9432,4.9443,4.9451,4.9536,4.9561,4.9583,4.9289,4.9287,4.9286,0,0,4.8461,4.8516,4.8633,4.869,4.8773,4.88,4.8828,4.8908,4.8933,4.9072,4.9055,4.9143,4.931,4.9368,4.9419,4.9611,4.9592,4.964,4.9731,4.9817,4.9838,4.9857,4.9922,4.9946,4.9656,4.9656,4.9656,0,4.8531,4.8681,4.8696,4.8806,4.8863,4.8845,4.8963,4.9018,4.9128,4.9167,4.9129,4.9336,4.939,4.9558,4.9604,4.9647,4.9679,4.9629,4.9834,4.9853,4.987,4.9933,4.9958,4.9661,4.9661,4.966,4.966,0,4.8763,4.8867,4.8952,4.9057,4.9124,4.9239,4.9271,4.9337,4.9338,4.9368,4.9509,4.9573,4.9677,4.9718,4.9721,4.9886,4.9863,4.983,4.976,4.99,4.996,4.9984,4.9669,4.9667,4.9665,4.9664,0,0,4.8972,4.9083,4.9114,4.9161,4.9252,4.9332,4.9446,4.9547,4.9602,4.9679,4.9773,4.9914,4.9883,4.9941,4.995,5.0027,5.0171,4.9984,4.9986,5.0014,5.0355,5.0377,5.0404,5.016,5.0165,5.0169,5.0347,0,4.9148,4.9346,4.9362,4.9541,4.9636,4.962,4.9718,4.9784,4.9816,4.9901,4.9936,5.0034,4.9988,5.0023,5.0098,5.0137,5.0239,5.0125,5.0246,5.025,5.0223,5.0436,5.046,5.0625,5.037,5.0374,5.0377,0,4.9379,4.9461,4.9649,4.9724,4.9765,4.9853,4.9946,5.0028,5.0103,5.012,5.0185,5.0183,5.0299,5.0227,5.0386,5.0308,5.0359,5.0386,5.0393,5.0402,5.032,5.0449,5.0679,5.0702,5.0414,5.0411,5.0409,0,4.9509,4.9667,4.9799,4.984,4.9933,4.9994,5.0036,5.0106,5.0165,5.0247,5.0284,5.0379,5.0431,5.0504,5.0527,5.0473,5.0684,5.0615,5.0701,5.07,5.0744,5.074,5.0982,5.0782,5.0781,5.0781,5.078,0,4.9702,4.9817,4.9858,4.9939,5.0067,5.0085,5.0211,5.0249,5.0312,5.0399,5.0392,5.0474,5.0502,5.0589,5.0609,5.0735,5.076,5.0776,5.0779,5.0775,5.0772,5.0806,5.0794,5.0787,5.0786,5.0785,5.0783,0,4.9868,4.9901,5.0043,5.0119,5.0141,5.0231,5.0296,5.0373,5.0403,5.0514,5.0542,5.0589,5.0691,5.0722,5.0846,5.0859,5.1006,5.1001,5.0981,5.098,5.1063,5.1054,5.1333,5.1369,5.1148,5.115,5.1152,0,4.9988,5.0076,5.016,5.0218,5.0262,5.0355,5.0415,5.0437,5.0499,5.059,5.0656,5.0757,5.0838,5.1002,5.1047,5.1141,5.1136,5.1228,5.115,5.1143,5.1134,5.1127,5.1135,5.1241,5.1244,5.1246,5.1247,0,5.0196,5.0208,5.0294,5.0385,5.0457,5.053,5.0601,5.0649,5.0681,5.0751,5.0855,5.0918,5.1043,5.1142,5.1238,5.128,5.1269,5.1272,5.1296,5.1291,5.1274,5.1281,5.1017,5.1264,5.1263,5.1261,5.1261,5.126,5.0341,5.0417,5.0488,5.0583,5.0639,5.0705,5.078,5.082,5.0906,5.1009,5.1017,5.1128,5.12,5.1326,5.1374,5.1461,5.1434,5.1471,5.1479,5.1487,5.1492,5.1263,5.1479,5.1479,5.1478,5.1478,5.1477,0,5.0546,5.059,5.0678,5.0777,5.0852,5.0835,5.0912,5.0976,5.1074,5.1141,5.1221,5.1339,5.1435,5.1488,5.1584,5.1643,5.164,5.1667,5.1662,5.1671,5.1512,5.148,5.1668,5.1668,5.1668,5.1668,5.1668,5.1668,5.0661,5.0788,5.0808,5.0961,5.1006,5.1114,5.1159,5.1219,5.1273,5.1405,5.1484,5.1518,5.1579,5.1679,5.1766,5.1779,5.1813,5.1843,5.1853,5.1702,5.1683,5.1664,5.1634,5.1851,5.1851,5.2004,5.2006,5.2007]},{"header":{"parameterUnit":"m.s-1","parameterCategory":1,"la1":30.2991,"la2":30.254,"lo1":-89.0895,"lo2":-89.0444,"dy":0.0017,"dx":0.0017,"nx":28,"ny":28,"refTime":"2024-06-28T09:00:00:Z","depth":0,"parameterNumber":3,"parameterNumberName":"V-component_of_WINDS"},"data":[0,0,0,0,0,0,0,0,0,0,0,0,0,0,0,0,0,0,0,0,0,0,0,0,0,0,0,0,0,0,0,0,0,0,0,0,0,0,0,0,0,0,0,0,0,0,0,0,0,0,0,0,0,0,0,0,0,0,0.3781,0.3781,0,0.3846,0.3847,0.3847,0.3849,0.3848,0.3847,0.3846,0.3916,0.3919,0.3921,0,0,0,0,0,0,0,0,0,0,0,0,0,0.366,0.3662,0.3781,0.3781,0.3782,0.3846,0.3847,0.3847,0.3849,0.3848,0.3847,0.3846,0.3915,0.3918,0.3921,0,0,0,0,0,0,0,0,0,0,0,0,0,0.3717,0.3663,0.378,0.379,0.3792,0.3845,0.3847,0.3848,0.3849,0.3848,0.3847,0.3846,0.3914,0.3918,0.3922,0.397,0,0,0.3934,0.3935,0,0,0,0,0,0,0,0,0.3714,0.3722,0.3788,0.379,0.3792,0.3838,0.383,0.3889,0.3849,0.3828,0.3846,0.3845,0.3891,0.3897,0.3912,0.3974,0.3977,0.3934,0.3936,0.3938,0.3939,0,0,0,0,0,0,0,0.371,0.3719,0.3806,0.3789,0.3791,0.3793,0.3799,0.3841,0.3866,0.3829,0.383,0.3837,0.3892,0.3908,0.3914,0.3978,0.3934,0.3937,0.394,0.3941,0.4083,0.4084,0,0,0,0,0,0,0.3704,0.3716,0.3804,0.3808,0.3749,0.3796,0.3803,0.3824,0.3865,0.387,0.3838,0.3837,0.3902,0.3909,0.3916,0.3976,0.3938,0.3942,0.3944,0.4081,0.4083,0.4084,0,0,0,0,0,0,0.3701,0.3712,0.3802,0.3762,0.3774,0.3799,0.3823,0.3826,0.3842,0.3872,0.3876,0.385,0.3901,0.391,0.3957,0.3978,0.3944,0.3947,0.408,0.4082,0.4084,0.4096,0,0,0,0,0,0,0.3698,0.3711,0.3729,0.3763,0.3776,0.3841,0.3824,0.3828,0.3849,0.3848,0.3884,0.3889,0.3901,0.3951,0.3961,0.3983,0.395,0.4078,0.4081,0.4083,0.4093,0.4098,0.4102,0,0,0,0,0,0.3693,0.373,0.373,0.3741,0.3799,0.3842,0.385,0.3862,0.3851,0.3869,0.3888,0.3888,0.3974,0.3956,0.3967,0.399,0.4077,0.408,0.4083,0.4092,0.4097,0.4101,0,0,0,0,0,0,0.37,0.3735,0.3735,0.3784,0.381,0.3842,0.3866,0.3867,0.3898,0.3896,0.3911,0.3919,0.3965,0.3982,0.3961,0.404,0.4024,0.403,0.4027,0.4032,0.4036,0.4032,0.3953,0,0,0,0,0,0.3707,0.3738,0.3767,0.3807,0.382,0.3841,0.386,0.3867,0.3895,0.3907,0.3929,0.3957,0.399,0.4012,0.4044,0.4095,0.4104,0.4117,0.4121,0.4125,0.413,0.4158,0.4165,0.4095,0.4095,0.4095,0,0,0.3722,0.3745,0.3764,0.3809,0.383,0.3863,0.385,0.3885,0.391,0.3912,0.3957,0.3974,0.4007,0.4055,0.4078,0.4071,0.415,0.4129,0.4131,0.4134,0.4162,0.4169,0.4174,0.4097,0.4097,0.4096,0,0,0.3766,0.3786,0.3822,0.3843,0.3874,0.3888,0.3896,0.3928,0.394,0.3984,0.3987,0.4017,0.4074,0.4097,0.4116,0.4167,0.4168,0.4178,0.42,0.4227,0.4233,0.4238,0.4257,0.4263,0.4182,0.4182,0.4182,0,0.3781,0.3829,0.384,0.3875,0.3895,0.3898,0.3934,0.3954,0.3995,0.401,0.4001,0.4072,0.4094,0.4149,0.4161,0.4176,0.4187,0.4174,0.4231,0.4236,0.4241,0.4259,0.4266,0.4183,0.4183,0.4183,0.4183,0,0.3846,0.388,0.3905,0.3943,0.3966,0.4002,0.4019,0.4041,0.4046,0.406,0.4106,0.4132,0.417,0.4183,0.4189,0.4238,0.4233,0.4227,0.4212,0.4248,0.4265,0.4273,0.4185,0.4184,0.4184,0.4184,0,0,0.3897,0.394,0.3949,0.3967,0.4001,0.4028,0.4064,0.4099,0.4118,0.4146,0.4177,0.4225,0.422,0.4242,0.425,0.4274,0.4314,0.4265,0.4266,0.4274,0.437,0.4375,0.4383,0.4314,0.4315,0.4316,0.4368,0,0.3945,0.4008,0.4019,0.4074,0.4105,0.4108,0.4139,0.4164,0.4179,0.4208,0.4224,0.4258,0.4248,0.4261,0.4285,0.4304,0.4333,0.43,0.4344,0.4345,0.4336,0.4392,0.4397,0.4444,0.4374,0.4376,0.4376,0,0.401,0.4038,0.4097,0.4127,0.414,0.4168,0.4202,0.4229,0.4258,0.4267,0.4291,0.4296,0.4334,0.4316,0.4369,0.4346,0.4365,0.4376,0.4378,0.4384,0.4364,0.4399,0.4459,0.4466,0.4387,0.4386,0.4386,0,0.4041,0.4094,0.4136,0.4151,0.4187,0.4207,0.4223,0.425,0.4271,0.43,0.4314,0.4348,0.4367,0.4393,0.4408,0.4393,0.446,0.4443,0.4469,0.4469,0.4484,0.4483,0.4548,0.4494,0.4494,0.4494,0.4494,0,0.4094,0.413,0.4151,0.4177,0.4217,0.4229,0.4269,0.4285,0.4309,0.4338,0.4342,0.437,0.4387,0.4417,0.4429,0.4471,0.448,0.4488,0.4491,0.4488,0.4487,0.4501,0.4499,0.4496,0.4495,0.4495,0.4495,0,0.4137,0.4152,0.4198,0.4228,0.4236,0.4265,0.4291,0.4316,0.433,0.4367,0.4377,0.4399,0.4435,0.4452,0.4496,0.4504,0.4552,0.4553,0.4542,0.4544,0.4569,0.4566,0.4646,0.4657,0.4595,0.4596,0.4596,0,0.417,0.4197,0.423,0.4249,0.4266,0.4297,0.4318,0.4331,0.4353,0.4387,0.4409,0.4445,0.4474,0.4531,0.4552,0.4586,0.4588,0.4613,0.4593,0.4589,0.4589,0.4587,0.459,0.4617,0.4618,0.4618,0.4619,0,0.4227,0.4233,0.4263,0.4295,0.4319,0.4346,0.4371,0.4387,0.4405,0.4429,0.4465,0.4488,0.4533,0.4569,0.4604,0.4621,0.4623,0.4625,0.4633,0.463,0.4624,0.4628,0.4553,0.4623,0.4623,0.4622,0.4622,0.4622,0.4266,0.4291,0.4317,0.435,0.4371,0.4394,0.442,0.4436,0.4467,0.4504,0.451,0.4548,0.4576,0.4624,0.4643,0.4673,0.4668,0.4679,0.4682,0.4685,0.4686,0.4618,0.468,0.468,0.468,0.468,0.468,0,0.4324,0.4341,0.4371,0.4406,0.4432,0.443,0.4459,0.4481,0.4515,0.454,0.4568,0.461,0.4645,0.4668,0.4703,0.4723,0.4725,0.4732,0.4731,0.4735,0.4689,0.4679,0.473,0.473,0.473,0.473,0.473,0.473,0.4357,0.4398,0.4407,0.4459,0.4476,0.4513,0.453,0.4552,0.4572,0.4618,0.4647,0.4661,0.4686,0.4723,0.4754,0.476,0.4773,0.4781,0.4787,0.4744,0.4738,0.4733,0.4724,0.4783,0.4783,0.483,0.483,0.4831]}]]